KC1HBM Weather Reports


Display with metric or nautical units.
time (UTC)temp
F
wind
direction
speed
MPH
gust
MPH
rain 1hr
in
rain 24hr
in
rain mn
in
humidity
%
barometer
mb
20260505014209 55 5 2.0 2.0 0.00 0.00 0.00 75 1005.3
20260505013705 55 342 1.0 2.0 0.00 0.00 0.00 75 1005.2
20260505013202 54 333 1.0 2.0 0.00 0.00 0.00 75 1005.3
20260505012701 54 310 0.0 1.0 0.00 0.00 0.00 75 1005.0
20260505012157 54 30 2.0 3.0 0.00 0.00 0.00 75 1004.8
20260505011653 53 305 1.0 2.0 0.00 0.00 0.00 76 1004.9
20260505011150 53 351 3.0 5.0 0.00 0.00 0.00 78 1004.8
20260505010645 52 264 3.0 3.0 0.00 0.00 0.00 80 1005.0
20260505010143 52 321 1.0 1.0 0.00 0.00 0.00 80 1005.0
20260505005638 51 315 0.0 1.0 0.00 0.00 0.00 82 1004.8
20260505005136 51 320 0.0 0.0 0.00 0.00 0.00 83 1004.9
20260505004633 51 310 1.0 1.0 0.00 0.00 0.00 83 1004.8
20260505004129 51 306 0.0 1.0 0.00 0.00 0.00 83 1004.5
20260505003627 51 312 0.0 0.0 0.00 0.00 0.00 83 1004.4
20260505003124 51 313 1.0 1.0 0.00 0.00 0.00 83 1004.4
20260505002620 51 304 1.0 1.0 0.00 0.00 0.00 82 1004.3
20260505002119 52 312 0.0 0.0 0.00 0.00 0.00 81 1004.2
20260505001615 52 310 0.0 0.0 0.00 0.00 0.00 80 1004.0
20260505001113 53 311 1.0 1.0 0.00 0.00 0.00 79 1003.8
20260505000610 53 306 1.0 1.0 0.00 0.00 0.00 77 1003.9
20260505000108 54 304 2.0 2.0 0.00 0.00 0.00 75 1003.9
20260504235604 55 312 2.0 2.0 0.00 0.00 0.00 73 1003.6
20260504235100 56 305 2.0 2.0 0.00 0.00 0.00 68 1003.7
20260504234557 57 303 1.0 1.0 0.00 0.00 0.00 66 1003.6
20260504234055 59 305 1.0 1.0 0.00 0.00 0.00 63 1003.6
20260504233550 62 293 1.0 1.0 0.00 0.00 0.00 58 1003.3
20260504233047 67 305 1.0 1.0 0.00 0.00 0.00 41 1003.3
20260504232544 67 305 0.0 1.0 0.00 0.00 0.00 41 1003.3
20260504232042 67 306 0.0 1.0 0.00 0.00 0.00 41 1003.1
20260504231538 68 305 1.0 1.0 0.00 0.00 0.00 40 1003.1
20260504231034 68 307 1.0 1.0 0.00 0.00 0.00 40 1002.8
20260504230530 68 307 0.0 1.0 0.00 0.00 0.00 40 1002.8
20260504230030 68 308 0.0 1.0 0.00 0.00 0.00 39 1002.7
20260504225526 68 305 1.0 1.0 0.00 0.00 0.00 39 1002.7
20260504225023 68 307 0.0 0.0 0.00 0.00 0.00 40 1002.9
20260504224520 69 306 1.0 1.0 0.00 0.00 0.00 38 1002.8
20260504224017 68 307 1.0 1.0 0.00 0.00 0.00 40 1002.8
20260504223514 68 306 1.0 1.0 0.00 0.00 0.00 40 1002.6
20260504223010 68 307 0.0 0.0 0.00 0.00 0.00 40 1002.4
20260504222507 69 299 1.0 1.0 0.00 0.00 0.00 38 1002.4
20260504222004 69 307 1.0 1.0 0.00 0.00 0.00 38 1002.5
20260504221501 69 305 2.0 3.0 0.00 0.00 0.00 38 1002.6
20260504220958 69 303 1.0 2.0 0.00 0.00 0.00 39 1002.6
20260504220454 70 307 1.0 1.0 0.00 0.00 0.00 39 1002.5
20260504215951 69 309 1.0 2.0 0.00 0.00 0.00 38 1002.7
20260504215448 70 290 0.0 1.0 0.00 0.00 0.00 38 1002.6
20260504214945 71 304 1.0 2.0 0.00 0.00 0.00 38 1002.5
20260504214441 71 287 0.0 1.0 0.00 0.00 0.00 37 1002.6
20260504213938 71 307 2.0 3.0 0.00 0.00 0.00 37 1002.5
20260504213434 71 280 2.0 3.0 0.00 0.00 0.00 37 1002.5
20260504212932 71 307 1.0 1.0 0.00 0.00 0.00 37 1002.6
20260504212427 71 304 1.0 1.0 0.00 0.00 0.00 37 1002.6
20260504211925 71 304 1.0 1.0 0.00 0.00 0.00 37 1002.5
20260504211421 71 271 2.0 3.0 0.00 0.00 0.00 38 1002.5
20260504210919 71 274 2.0 3.0 0.00 0.00 0.00 37 1002.3
20260504210415 71 310 1.0 2.0 0.00 0.00 0.00 37 1002.4
20260504205913 71 307 2.0 2.0 0.00 0.00 0.00 38 1002.6
20260504205410 71 302 2.0 2.0 0.00 0.00 0.00 38 1002.6
20260504204908 72 308 1.0 1.0 0.00 0.00 0.00 36 1002.5
20260504204406 72 307 2.0 2.0 0.00 0.00 0.00 37 1002.5
20260504203906 71 307 1.0 1.0 0.00 0.00 0.00 37 1002.4
20260504203402 72 308 1.0 2.0 0.00 0.00 0.00 37 1002.4
20260504202858 71 308 1.0 1.0 0.00 0.00 0.00 37 1002.6
20260504202355 71 303 2.0 2.0 0.00 0.00 0.00 38 1002.5
20260504201851 71 304 1.0 1.0 0.00 0.00 0.00 38 1002.6
20260504201349 71 301 2.0 2.0 0.00 0.00 0.00 39 1002.5
20260504200846 70 296 1.0 2.0 0.00 0.00 0.00 39 1002.5
20260504200343 69 308 1.0 2.0 0.00 0.00 0.00 40 1002.5
20260504195839 69 309 1.0 1.0 0.00 0.00 0.00 40 1002.4
20260504195335 69 297 3.0 3.0 0.00 0.00 0.00 39 1002.3
20260504194832 69 309 3.0 5.0 0.00 0.00 0.00 39 1002.6
20260504194328 69 301 1.0 2.0 0.00 0.00 0.00 40 1002.4
20260504193824 70 300 0.0 1.0 0.00 0.00 0.00 40 1002.7
20260504193322 70 300 2.0 2.0 0.00 0.00 0.00 39 1002.6
20260504192820 70 302 2.0 2.0 0.00 0.00 0.00 40 1002.8
20260504192318 70 304 1.0 1.0 0.00 0.00 0.00 40 1002.9
20260504191816 69 305 1.0 1.0 0.00 0.00 0.00 41 1002.8
20260504191313 69 306 2.0 2.0 0.00 0.00 0.00 41 1002.9
20260504190809 68 304 1.0 1.0 0.00 0.00 0.00 42 1003.0
20260504190305 67 310 0.0 0.0 0.00 0.00 0.00 42 1002.9
20260504185801 67 304 1.0 2.0 0.00 0.00 0.00 41 1003.0
20260504185258 67 305 1.0 1.0 0.00 0.00 0.00 41 1003.3
20260504184755 67 306 1.0 1.0 0.00 0.00 0.00 42 1003.1
20260504184250 67 307 0.0 0.0 0.00 0.00 0.00 41 1003.0
20260504183746 67 306 1.0 2.0 0.00 0.00 0.00 41 1003.3
20260504183243 67 307 1.0 1.0 0.00 0.00 0.00 40 1002.9
20260504182742 67 308 1.0 2.0 0.00 0.00 0.00 39 1002.9
20260504182238 67 305 1.0 1.0 0.00 0.00 0.00 40 1003.0
20260504181736 68 308 2.0 3.0 0.00 0.00 0.00 39 1002.8
20260504181233 68 308 2.0 2.0 0.00 0.00 0.00 39 1002.9
20260504180732 68 300 1.0 2.0 0.00 0.00 0.00 38 1003.0
20260504180231 68 279 2.0 2.0 0.00 0.00 0.00 39 1002.9
20260504175728 68 303 2.0 2.0 0.00 0.00 0.00 38 1003.0
20260504175224 68 309 1.0 2.0 0.00 0.00 0.00 37 1002.8
20260504174723 68 310 1.0 2.0 0.00 0.00 0.00 38 1002.6
20260504174220 68 261 3.0 5.0 0.00 0.00 0.00 37 1003.1
20260504173716 68 318 2.0 2.0 0.00 0.00 0.00 37 1002.9
20260504173213 68 288 3.0 5.0 0.00 0.00 0.00 38 1002.8
20260504172710 69 278 5.0 7.0 0.00 0.00 0.00 36 1002.9
20260504172206 69 320 2.0 3.0 0.00 0.00 0.00 37 1002.8
20260504171703 70 278 5.0 8.0 0.00 0.00 0.00 35 1002.7
20260504171200 71 302 3.0 6.0 0.00 0.00 0.00 34 1002.8
20260504170656 70 281 3.0 5.0 0.00 0.00 0.00 36 1002.7
20260504170154 71 305 1.0 2.0 0.00 0.00 0.00 36 1002.9
20260504160113 64 311 1.0 2.0 0.00 0.00 0.00 52 1003.5
20260504151039 67 276 4.0 5.0 0.00 0.00 0.00 43 1004.4
20260504150537 66 297 2.0 2.0 0.00 0.00 0.00 45 1004.4
20260504141003 62 296 3.0 6.0 0.00 0.00 0.00 47 1005.3
20260504140459 61 295 2.0 2.0 0.00 0.00 0.00 51 1005.4
20260504130424 55 310 2.0 3.0 0.00 0.00 0.00 61 1006.2
20260504110311 51 300 1.0 2.0 0.00 0.00 0.00 60 1006.5
20260504100229 43 301 1.0 1.0 0.00 0.00 0.00 70 1006.5
20260504081622 41 306 1.0 2.0 0.00 0.00 0.00 69 1006.4
20260504081118 41 307 1.0 1.0 0.00 0.00 0.00 70 1006.4
20260504080615 41 307 0.0 0.0 0.00 0.00 0.00 71 1006.6
20260504080111 41 303 1.0 1.0 0.00 0.00 0.00 70 1006.3
20260504050427 39 308 0.0 0.0 0.00 0.00 0.00 74 1006.3
20260504045925 40 307 0.0 1.0 0.00 0.00 0.00 73 1006.3
20260504045420 40 307 0.0 1.0 0.00 0.00 0.00 73 1006.2
20260504044916 40 306 0.0 0.0 0.00 0.00 0.00 73 1006.2
20260504044414 40 308 0.0 0.0 0.00 0.00 0.00 73 1006.1
20260504043912 40 307 0.0 1.0 0.00 0.00 0.00 73 1006.3
20260504043408 40 307 1.0 1.0 0.00 0.00 0.00 73 1006.3
20260504042906 40 306 0.0 1.0 0.00 0.00 0.00 73 1006.2
20260504042402 40 308 0.0 1.0 0.00 0.00 0.00 73 1006.2
20260504041858 40 308 0.0 0.0 0.00 0.00 0.00 74 1006.2
20260504041355 40 308 0.0 0.0 0.00 0.00 0.00 73 1006.1
20260504040850 40 308 0.0 0.0 0.00 0.00 0.00 73 1006.1
20260504040349 40 308 0.0 0.0 0.00 0.00 0.00 72 1006.0
20260504035844 40 311 0.0 0.0 0.00 0.00 0.00 72 1006.2
20260504035342 40 312 0.0 0.0 0.00 0.00 0.00 74 1005.9
20260504034839 40 312 0.0 0.0 0.00 0.00 0.00 74 1006.1
20260504034336 40 313 0.0 0.0 0.00 0.00 0.00 73 1005.8
20260504033833 41 313 0.0 0.0 0.00 0.00 0.00 76 1005.7
20260504033331 40 307 0.0 0.0 0.00 0.00 0.00 74 1006.0
20260504032827 39 307 0.0 0.0 0.00 0.00 0.00 74 1005.8
20260504032325 40 307 0.0 0.0 0.00 0.00 0.00 77 1005.9
20260504031822 39 307 0.0 0.0 0.00 0.00 0.00 76 1005.8
20260504031319 39 307 0.0 0.0 0.00 0.00 0.00 78 1005.8
20260504030815 38 307 0.0 0.0 0.00 0.00 0.00 81 1005.7
20260504030313 39 307 0.0 0.0 0.00 0.00 0.00 84 1005.6
20260504025808 39 307 0.0 0.0 0.00 0.00 0.00 84 1005.8
20260504025306 40 307 0.0 0.0 0.00 0.00 0.00 85 1005.7
20260504024802 40 307 0.0 0.0 0.00 0.00 0.00 83 1005.7
20260504024259 40 307 0.0 0.0 0.00 0.00 0.00 81 1005.8
20260504023755 40 307 0.0 0.0 0.00 0.00 0.00 80 1005.8
20260504023252 41 307 0.0 0.0 0.00 0.00 0.00 80 1005.7
20260504022748 41 307 0.0 0.0 0.00 0.00 0.00 80 1005.6
20260504022244 41 307 0.0 0.0 0.00 0.00 0.00 79 1005.6
20260504021741 42 307 0.0 0.0 0.00 0.00 0.00 78 1005.8
20260504021239 42 307 0.0 0.0 0.00 0.00 0.00 77 1005.7
20260504020736 42 307 0.0 0.0 0.00 0.00 0.00 73 1005.9
20260504020232 42 307 0.0 0.0 0.00 0.00 0.00 65 1005.8
20260504015728 42 307 0.0 0.0 0.00 0.00 0.00 65 1005.9
20260504015225 43 307 0.0 0.0 0.00 0.00 0.00 65 1005.8
20260504014720 43 307 0.0 0.0 0.00 0.00 0.00 64 1005.8